Location: Fort Worth, Tx
(32.7431°N, 97.3695°W)
Time: 06:13:04
(UTC-05:00)

Tiros 1 - Pass Details

Date: 22 November 2024
Orbit: 622 x 653 km, 48.4° (Epoch: 05 December)

Event Time Altitude Azimuth Distance (km) Brightness Sun altitude
Rises 21:09:11 0° 310° (NW) 2,960 11.1 -34.2°
Reaches altitude 10° 21:11:32 10° 312° (NW) 2,051 10.2 -34.7°
Enters shadow 21:12:20 15° 313° (NW) 1,746 9.7 -34.9°
